STARLINK-30807, 58192

Orbit data source: Space-Track

STARLINK-30807, 58192 is a payload satellite owned by SpaceX/Seattle (US) in LEO that was launched on Mon, 30 Oct 2023 UTC via an FALCON 9 launch vehicle from the Air Force Eastern Test Range (AFETR). Payload-class satellites include a variety of spacecraft equipped with specific instruments for various scientific and technological missions. These include communications satellites like Starlink; space stations such as the ISS; scientific satellites like the Hubble; Earth observation satellites from companies like Planet Labs, Umbra, and HawkEye 360; GPS; miniature CubeSats for education and research; and military/defense satellites.

Loading next visibility...
Identifier
58192, 2023-167T
Orbit
LEO
Country
Flag of USUS
Related business
Manufacturer
SpaceX/Seattle
Mission
Operational Commercial Communications
Bus & Motor
STARLINK V2M, Unknown motor
Mass
730 kg wet, ~700 kg dry
Launch date (UTC)
2023-10-30 (3 years ago)
Launch vehicle
FALCON 9
Launch site
Air Force Eastern Test Range (AFETR)
Object type
Payload
Rocket body
Debris
Shape & HBR
Box + 2 Pan, 17.7 m
Radar Cross Section
33.884 m², Large (>1 m²)

Expand to show TLE details & history
Last TLE update: 2 days ago

TLE from 2 days ago
0 STARLINK-30807
1 58192U 23167T   26171.33945039  .00018224  00000-0  66979-3 0  9994
2 58192  42.9983 283.7206 0001172 276.8645  83.2073 15.27597574146689
Epoch: 2026-06-20T08:08Z
TLE epoch observation values (Epoch: 2026-06-20T08:08:48.513Z)
Latitude
-0.00004°
Longitude
-107.03708°
Altitude
482.677 km
Speed
7.626 km/s
True Right ascension
18h 54m 52s
True Declination
0° 00' 00"
Sunlit
Object was in full shadow at epoch
Visualization orbit readout
Latitude
Unknown
Longitude
Unknown
Altitude
Unknown
Speed
Unknown
Apparent Right ascension
Unknown
Apparent Declination
Unknown
Sunlit
N/A
Visualization observer readout
Local Sidereal Time
23:08:50
Azimuth
Unknown
Elevation
Unknown
Doppler factor
Unknown
Orbital elements
Apogee altitude
485.746 km
Perigee altitude
484.138 km
Semi-major axis
6,863.079 km
Eccentricity
0.00012
Inclination
42.9983°
RAAN
283.7206°
Arg. of periapsis
276.8645°
True anomaly
83.22064°
Mean anomaly
83.2073°
Eccentric anomaly
83.21397°
Mean motion
3.81737 °/min
Orbital period
94.31 mins
BSTAR
0.00066979
Loading maneuver chart data...
Computing Atmospheric mass density...
Loading historical data...
Loading historical data...
Loading historical data...
Loading historical data...
Loading historical data...
Loading historical data...
Loading historical data...

Documentation

Showing up to 5 results
|